TimeEDT,TemperatureF,Dew PointF,Humidity,Sea Level PressureIn,VisibilityMPH,Wind Direction,Wind SpeedMPH,Gust SpeedMPH,PrecipitationIn,Events,Conditions,WindDirDegrees,DateUTC
12:02 AM,42.8,42.8,100,30.03,1.8,Calm,Calm,-,N/A,,Clear,0,2013-04-06 04:02:00
12:14 AM,42.8,41.0,93,30.04,3.0,Calm,Calm,-,N/A,,Clear,0,2013-04-06 04:14:00
12:21 AM,41.0,41.0,100,30.04,1.5,Calm,Calm,-,N/A,,Clear,0,2013-04-06 04:21:00
12:27 AM,42.8,42.8,100,30.04,0.5,Calm,Calm,-,N/A,Fog,Fog,0,2013-04-06 04:27:00
12:41 AM,42.8,42.8,100,30.04,1.0,Calm,Calm,-,N/A,,Clear,0,2013-04-06 04:41:00
12:48 AM,42.8,41.0,93,30.04,0.5,Calm,Calm,-,N/A,Fog,Fog,0,2013-04-06 04:48:00
12:52 AM,42.1,41.0,96,30.04,0.2,Calm,Calm,-,N/A,Fog,Fog,0,2013-04-06 04:52:00
1:06 AM,41.0,39.2,93,30.04,1.0,Calm,Calm,-,N/A,,Clear,0,2013-04-06 05:06:00
1:14 AM,42.8,41.0,93,30.04,3.0,Calm,Calm,-,N/A,,Clear,0,2013-04-06 05:14:00
1:46 AM,42.8,41.0,93,30.05,1.8,Calm,Calm,-,N/A,,Clear,0,2013-04-06 05:46:00
1:52 AM,41.0,39.9,96,30.05,1.0,Calm,Calm,-,N/A,,Clear,0,2013-04-06 05:52:00
1:58 AM,41.0,39.2,93,30.05,3.0,Calm,Calm,-,N/A,,Clear,0,2013-04-06 05:58:00
2:22 AM,41.0,39.2,93,30.06,1.5,Calm,Calm,-,N/A,,Clear,0,2013-04-06 06:22:00
2:32 AM,39.2,37.4,93,30.06,3.0,Calm,Calm,-,N/A,,Clear,0,2013-04-06 06:32:00
2:52 AM,39.9,39.0,97,30.06,1.8,Calm,Calm,-,N/A,,Clear,0,2013-04-06 06:52:00
3:04 AM,39.2,39.2,100,30.06,0.8,Calm,Calm,-,N/A,,Clear,0,2013-04-06 07:04:00
3:10 AM,39.2,37.4,93,30.06,2.0,Calm,Calm,-,N/A,,Clear,0,2013-04-06 07:10:00
3:23 AM,39.2,37.4,93,30.06,10.0,Calm,Calm,-,N/A,,Clear,0,2013-04-06 07:23:00
3:52 AM,39.0,37.9,96,30.07,6.0,Calm,Calm,-,N/A,,Clear,0,2013-04-06 07:52:00
4:11 AM,37.4,37.4,100,30.07,1.8,Calm,Calm,-,N/A,,Clear,0,2013-04-06 08:11:00
4:17 AM,37.4,35.6,93,30.07,0.5,Calm,Calm,-,N/A,Fog,Fog,0,2013-04-06 08:17:00
4:24 AM,37.4,37.4,100,30.07,1.0,Calm,Calm,-,N/A,,Clear,0,2013-04-06 08:24:00
4:29 AM,37.4,37.4,100,30.08,4.0,Calm,Calm,-,N/A,,Clear,0,2013-04-06 08:29:00
4:52 AM,37.9,37.0,97,30.08,8.0,Calm,Calm,-,N/A,,Clear,0,2013-04-06 08:52:00
5:01 AM,37.4,37.4,100,30.08,1.2,Calm,Calm,-,0.01,,Clear,0,2013-04-06 09:01:00
5:04 AM,37.4,37.4,100,30.08,0.5,Calm,Calm,-,0.01,Fog,Fog,0,2013-04-06 09:04:00
5:13 AM,37.4,35.6,93,30.09,1.0,Calm,Calm,-,0.01,,Clear,0,2013-04-06 09:13:00
5:21 AM,37.4,35.6,93,30.09,10.0,Calm,Calm,-,0.01,,Clear,0,2013-04-06 09:21:00
5:52 AM,37.0,35.1,93,30.10,10.0,Calm,Calm,-,0.01,,Clear,0,2013-04-06 09:52:00
6:52 AM,39.0,35.1,86,30.13,10.0,North,5.8,-,N/A,,Clear,10,2013-04-06 10:52:00
7:52 AM,45.0,37.9,76,30.16,10.0,NE,9.2,-,N/A,,Clear,50,2013-04-06 11:52:00
8:52 AM,51.1,37.9,61,30.19,10.0,ENE,10.4,-,N/A,,Clear,60,2013-04-06 12:52:00
9:52 AM,55.0,36.0,49,30.22,10.0,ENE,15.0,-,N/A,,Clear,70,2013-04-06 13:52:00
10:52 AM,57.9,35.1,42,30.23,10.0,East,17.3,-,N/A,,Clear,80,2013-04-06 14:52:00
11:52 AM,62.1,35.1,37,30.24,10.0,ENE,15.0,18.4,N/A,,Clear,60,2013-04-06 15:52:00
12:52 PM,63.0,35.1,35,30.24,10.0,East,10.4,-,N/A,,Clear,80,2013-04-06 16:52:00
1:52 PM,66.0,34.0,30,30.23,10.0,East,8.1,-,N/A,,Clear,80,2013-04-06 17:52:00
2:52 PM,64.9,33.1,31,30.22,10.0,Variable,5.8,-,N/A,,Clear,0,2013-04-06 18:52:00
3:52 PM,68.0,33.1,27,30.20,10.0,ENE,10.4,-,N/A,,Clear,60,2013-04-06 19:52:00
4:52 PM,66.9,32.0,27,30.18,10.0,Variable,4.6,-,N/A,,Clear,0,2013-04-06 20:52:00
5:52 PM,66.9,35.1,31,30.18,10.0,SE,9.2,-,N/A,,Clear,140,2013-04-06 21:52:00
6:52 PM,64.9,36.0,34,30.19,10.0,East,4.6,-,N/A,,Clear,90,2013-04-06 22:52:00
7:52 PM,60.1,39.0,46,30.21,10.0,East,4.6,-,N/A,,Clear,80,2013-04-06 23:52:00
8:52 PM,57.0,37.9,49,30.22,10.0,East,6.9,-,N/A,,Clear,90,2013-04-07 00:52:00
9:52 PM,52.0,39.0,61,30.25,10.0,South,6.9,-,N/A,,Clear,170,2013-04-07 01:52:00
10:52 PM,52.0,42.1,69,30.26,10.0,SSE,8.1,-,N/A,,Clear,150,2013-04-07 02:52:00
11:52 PM,51.1,41.0,68,30.27,10.0,SSE,13.8,-,N/A,,Clear,150,2013-04-07 03:52:00